Location: Prairie Dale
(45.6972°N, 104.5033°W)
Time: 22:29:29
(UTC+00:00)

EO-79 - Pass Details

Date: 07 July 2022
Orbit: 588 x 603 km, 98.0° (Epoch: 17 August)

Event Time Altitude Azimuth Distance (km) Brightness Sun altitude
Rises 09:59:57 0° 358° (N) 2,862 ? -10.8°
Reaches altitude 10° 10:02:43 10° 339° (NNW) 1,956 ? -10.5°
Maximum altitude 10:05:31 18° 297° (WNW) 1,524 ? -10.2°
Drops below altitude 10° 10:08:19 10° 256° (WSW) 1,951 ? -9.8°
Enters shadow 10:08:32 - 254° (WSW) 2,011 ? -9.8°
